"Pseudo-MPEC" for ZLB1C06

Created 2018 Jun 14 14:18:22 UT using Find_Orb

Click here for an explanation of pseudo-MPECs

 
 Astrometry: 
     ZLB1C06  C2018 06 11.44999 23 26 49.05 +13 23 52.7          19.8 GUNEOCPG96
     ZLB1C06  C2018 06 11.45434 23 26 49.92 +13 23 49.8          20.0 GUNEOCPG96
     ZLB1C06  C2018 06 11.45867 23 26 50.85 +13 23 48.2          20.3 GUNEOCPG96
     ZLB1C06  C2018 06 11.46300 23 26 51.79 +13 23 46.3          20.4 GUNEOCPG96
     ZLB1C06 KC2018 06 12`?Astrometryi-1SIxltrk%%SuvF0XN1Q1i3RGaUa[DnFRqDxkpDL01
     ZLB1C06 KC2018 06 12JPQFLx\V*ma;6NG7ixJ!lpS=o+ceO3;'3A%i$5sKPibXjyGGRLHxL01
     ZLB1C06 pC2018 06 12BUk`%WjlLqnPIL?wwredacted;I@9'0mNWE%wwZ9huryee6ENfn_L01
     ZLB1C06  C2018 06 12.40668 23 30 17.76 +13 15 58.6          19.8 GUNEOCPI52
     ZLB1C06  C2018 06 12.41080 23 30 18.64 +13 15 57.6          19.4 GUNEOCPI52
     ZLB1C06  C2018 06 12.41491 23 30 19.72 +13 15 56.3          21.1 GUNEOCPI52
     ZLB1C06 KC2018 06 13kQ.1E5v8=S7r34om(7Bk-eqCdEcYyH$PseeVjuEfgcsX[,G*TOuvJ04
     ZLB1C06 KC2018 06 13)f^I7[36yl5GKfX;;W[]@T;U;b9ok5EuU]xm?1]rXs?)9QxTc3k]J04
     ZLB1C06 KC2018 06 13A-9\I,+ouQDQ4Bx-S[%1.ynG*FVmYGQ!.D7XPC'LtKWbGUJNEOCPJ04
     ZLB1C06  C2018 06 13.42101 23 34 02.01 +13 07 03.7          19.9 GUNEOCPI52
     ZLB1C06  C2018 06 13.43233 23 34 04.49 +13 06 57.6          20.9 GUNEOCPI52
     ZLB1C06  C2018 06 13.43309 23 34 04.67 +13 06 56.9          19.8 GUNEOCPI52
     ZLB1C06  C2018 06 14.45696 23 37 54.21 +12 57 19.3                UNEOCPI52
     ZLB1C06  C2018 06 14.45743 23 37 54.42 +12 57 18.5                UNEOCPI52
     ZLB1C06  C2018 06 14.45850 23 37 54.62 +12 57 19.0          19.1 GUNEOCPI52

Station data:
(G96) Mt. Lemmon Survey  (N32.442754 W110.788720)  US/Arizona.  Observers B.
   M. Africano, E. J. Christensen, D. C. Fuls, A. R. Gibbs, A. D. Grauer, J.
   A. Johnson, R. A. Kowalski, S. M. Larson, G. J. Leonard, R. L. Seaman, F.
   C. Shelly. 1.5-m reflector + 10K CCD.
(I52) Steward Observatory, Mt. Lemmon Station  (N32.442547 W110.788920)
   US/Arizona.  Observers B. M. Africano, E. J. Christensen, D. C. Fuls, A.
   R. Gibbs, A. D. Grauer, J. A. Johnson, R. A. Kowalski, S. M. Larson, G. J.
   Leonard, R. L. Seaman, F. C. Shelly. 1.0-m reflector + CCD.
(J04) ESA Optical Ground Station, Tenerife  (N28.300924 W16.511830)  Canary
   Islands (Spain).  Observer D. Abreu. Measurers M. Micheli, D. Koschny, E.
   Schwab, M. Busch, A. Knöfel. 1.0-m f/4.4 reflector + CCD.
(L01) Višnjan Observatory, Tičan  (N45.290900 E13.749300)  Croatia.  Observer
   K. Korlević. 1.0-m f/2.9 reflector + CCD.

Orbital elements:  ZLB1C06
   Perihelion 2018 Oct 16.409098 +/- 4.06 TT =  9:49:06 (JD 2458407.909098)
Epoch 2018 Jun 14.0 TT = JDT 2458283.5   Earth MOID: 0.0664   AutoNEOCP
M 245.00269 +/- 8                   (J2000 ecliptic)
n   0.92434806 +/- 0.0415           Peri.  297.65187 +/- 6
a   1.04370803 +/- 0.0315           Node   131.94401 +/- 0.7
e   0.2005835 +/- 0.00312           Incl.   33.04497 +/- 0.8
P   1.07/389.46d           H 18.6   G  0.15   U 10.6  
q 0.83435741 +/- 0.0246    Q 1.25305865 +/- 0.0405
From 19 observations 2018 June 11-14; mean residual 0".61
Residuals in arcseconds: 
180611 G96  .62+  .47+    180612 I52  .48-  .34-    180613 I52  .23-  .04+    
180611 G96  .23-  .39-    180612 I52  .69-  .71+    180613 I52  .04-  .25-    
180611 G96  .13-  .04+    180612 I52  2.1+  1.5+    180614 I52  .87-  .11-    
180611 G96  .12+  .17+    180613 J04  .12-  .23+    180614 I52  .68+  .64-    
180612 L01  .23-  .35-    180613 J04  .28+  .15-    180614 I52  .12+  .47+    
180612 L01  .02+  .23+    180613 J04  .24+  .18+    
180612 L01  .89-  1.5-    180613 I52  .13-  .09+    

Ephemerides (geocentric):
Date (UTC) HH   RA              Dec         delta   r     elong  mag " sig PA
---- -- -- --  -------------   -----------  ------ ------ -----  --- ---- ---
2018 06 14 14  23 38 22.397   +12 56 10.11  .69591 1.1607  83.1 20.3  .51 167
2018 06 14 15  23 38 31.832   +12 55 45.60  .69557 1.1606  83.2 20.3  .53 169
2018 06 14 16  23 38 41.272   +12 55 21.01  .69522 1.1605  83.2 20.3  .56 171
2018 06 14 17  23 38 50.718   +12 54 56.37  .69488 1.1604  83.2 20.3  .58 172
2018 06 14 18  23 39 00.169   +12 54 31.66  .69454 1.1603  83.2 20.3  .61 174
2018 06 14 19  23 39 09.627   +12 54 06.88  .69420 1.1602  83.2 20.3  .63 175
2018 06 14 20  23 39 19.089   +12 53 42.05  .69386 1.1601  83.2 20.3  .66 177
2018 06 14 21  23 39 28.558   +12 53 17.14  .69352 1.1600  83.2 20.3  .69 178
2018 06 14 22  23 39 38.032   +12 52 52.18  .69318 1.1599  83.2 20.3  .72 179
2018 06 14 23  23 39 47.512   +12 52 27.14  .69284 1.1598  83.2 20.3  .75   0
2018 06 15 00  23 39 56.997   +12 52 02.05  .69249 1.1597  83.2 20.3  .78   1
2018 06 15 01  23 40 06.489   +12 51 36.88  .69215 1.1596  83.2 20.3  .81   2
2018 06 15 02  23 40 15.986   +12 51 11.66  .69181 1.1595  83.2 20.3  .85   3
2018 06 15 03  23 40 25.488   +12 50 46.36  .69147 1.1594  83.2 20.3  .88   4
2018 06 15 04  23 40 34.997   +12 50 21.01  .69113 1.1593  83.2 20.3  .92   5
2018 06 15 05  23 40 44.511   +12 49 55.58  .69079 1.1592  83.2 20.3  .95   6
2018 06 15 06  23 40 54.031   +12 49 30.10  .69045 1.1591  83.2 20.3  1.0   6
2018 06 15 07  23 41 03.556   +12 49 04.54  .69011 1.1590  83.2 20.3  1.0   7
2018 06 15 08  23 41 13.088   +12 48 38.92  .68977 1.1588  83.3 20.3  1.1   8
2018 06 15 09  23 41 22.625   +12 48 13.24  .68943 1.1587  83.3 20.3  1.1   8
2018 06 15 10  23 41 32.168   +12 47 47.49  .68909 1.1586  83.3 20.3  1.1   9
2018 06 15 11  23 41 41.717   +12 47 21.67  .68875 1.1585  83.3 20.3  1.2  10
2018 06 15 12  23 41 51.271   +12 46 55.79  .68841 1.1584  83.3 20.3  1.2  10
2018 06 15 13  23 42 00.831   +12 46 29.84  .68807 1.1583  83.3 20.3  1.3  11
2018 06 15 14  23 42 10.397   +12 46 03.83  .68773 1.1582  83.3 20.3  1.3  11
2018 06 15 15  23 42 19.969   +12 45 37.75  .68739 1.1581  83.3 20.3  1.4  12
2018 06 15 16  23 42 29.547   +12 45 11.61  .68705 1.1580  83.3 20.3  1.4  12
2018 06 15 17  23 42 39.130   +12 44 45.39  .68671 1.1579  83.3 20.3  1.5  12
2018 06 15 18  23 42 48.720   +12 44 19.11  .68637 1.1578  83.3 20.3  1.5  13
2018 06 15 19  23 42 58.315   +12 43 52.77  .68603 1.1577  83.3 20.3  1.5  13
2018 06 15 20  23 43 07.916   +12 43 26.36  .68569 1.1576  83.3 20.3  1.6  14
2018 06 15 21  23 43 17.523   +12 42 59.88  .68535 1.1575  83.3 20.3  1.6  14
2018 06 15 22  23 43 27.135   +12 42 33.33  .68501 1.1574  83.3 20.3  1.7  14
2018 06 15 23  23 43 36.754   +12 42 06.72  .68467 1.1573  83.3 20.3  1.7  15
2018 06 16 00  23 43 46.378   +12 41 40.04  .68433 1.1571  83.3 20.3  1.8  15
2018 06 16 01  23 43 56.009   +12 41 13.30  .68400 1.1570  83.3 20.3  1.8  15
2018 06 16 02  23 44 05.645   +12 40 46.49  .68366 1.1569  83.4 20.3  1.9  15
2018 06 16 03  23 44 15.287   +12 40 19.61  .68332 1.1568  83.4 20.2  2.0  16
2018 06 16 04  23 44 24.935   +12 39 52.66  .68298 1.1567  83.4 20.2  2.0  16
2018 06 16 05  23 44 34.589   +12 39 25.64  .68264 1.1566  83.4 20.2  2.1  16
2018 06 16 06  23 44 44.249   +12 38 58.56  .68230 1.1565  83.4 20.2  2.1  17
2018 06 16 07  23 44 53.914   +12 38 31.41  .68196 1.1564  83.4 20.2  2.2  17
2018 06 16 08  23 45 03.586   +12 38 04.19  .68162 1.1563  83.4 20.2  2.2  17
2018 06 16 09  23 45 13.264   +12 37 36.91  .68129 1.1562  83.4 20.2  2.3  17
2018 06 16 10  23 45 22.947   +12 37 09.56  .68095 1.1561  83.4 20.2  2.4  17
2018 06 16 11  23 45 32.637   +12 36 42.14  .68061 1.1560  83.4 20.2  2.4  18
2018 06 16 12  23 45 42.332   +12 36 14.65  .68027 1.1559  83.4 20.2  2.5  18
2018 06 16 13  23 45 52.034   +12 35 47.09  .67993 1.1558  83.4 20.2  2.5  18